GW6783 Weather Reports


Display with metric or nautical units.
time (UTC)temp
F
wind
direction
speed
MPH
gust
MPH
rain 1hr
in
rain 24hr
in
rain mn
in
humidity
%
barometer
mb
20260504110547 48 186 9.0 19.0 0.00 0.00 0.00 69 1005.4
20260504110111 48 163 10.0 17.0 0.00 0.00 0.00 70 1005.3
20260504100544 46 146 4.0 10.0 0.00 0.00 0.00 79 1005.5
20260504090117 45 157 5.0 10.0 0.00 0.00 0.00 81 1005.6
20260504081554 47 165 7.0 12.0 0.00 0.00 0.00 70 1006.1
20260504081046 47 167 5.0 12.0 0.00 0.00 0.00 71 1006.0
20260504080548 47 167 5.0 14.0 0.00 0.00 0.00 71 1006.0
20260504050545 44 120 3.0 8.0 0.00 0.01 0.00 55 1006.1
20260504050107 44 120 4.0 8.0 0.00 0.01 0.00 55 1006.3
20260504045546 44 120 3.0 8.0 0.00 0.01 0.00 56 1006.4
20260504045043 44 120 3.0 10.0 0.00 0.01 0.00 54 1006.4
20260504044603 44 120 5.0 10.0 0.00 0.01 0.00 54 1006.5
20260504044044 45 121 4.0 9.0 0.00 0.01 0.00 53 1006.6
20260504043544 45 120 4.0 9.0 0.00 0.01 0.00 53 1006.4
20260504043056 45 119 5.0 9.0 0.00 0.01 0.00 52 1006.4
20260504042543 45 119 5.0 9.0 0.00 0.01 0.00 52 1006.4
20260504042042 44 121 5.0 8.0 0.00 0.01 0.00 52 1006.5
20260504041553 44 121 4.0 9.0 0.00 0.01 0.00 52 1006.5
20260504041043 44 120 4.0 9.0 0.00 0.01 0.00 53 1006.5
20260504040544 43 121 5.0 9.0 0.00 0.01 0.00 53 1006.5
20260504040049 43 118 4.0 9.0 0.00 0.01 0.00 53 1006.5
20260504035544 44 117 5.0 9.0 0.00 0.01 0.01 52 1006.7
20260504035043 43 115 5.0 9.0 0.00 0.01 0.01 51 1006.5
20260504034603 43 112 4.0 9.0 0.00 0.01 0.01 52 1006.6
20260504034043 43 109 4.0 8.0 0.00 0.01 0.01 54 1006.6
20260504033543 43 109 4.0 9.0 0.00 0.01 0.01 54 1006.5
20260504033113 43 107 4.0 9.0 0.00 0.01 0.01 53 1006.5
20260504032543 43 78 4.0 11.0 0.00 0.01 0.01 53 1006.7
20260504032043 43 74 5.0 11.0 0.00 0.01 0.01 51 1006.5
20260504031556 44 57 3.0 10.0 0.00 0.01 0.01 51 1006.6
20260504031042 44 49 3.0 7.0 0.00 0.01 0.01 50 1006.5
20260504030546 44 48 3.0 6.0 0.00 0.01 0.01 49 1006.4
20260504030050 44 47 3.0 8.0 0.00 0.01 0.01 48 1006.5
20260504025543 44 45 3.0 8.0 0.00 0.01 0.01 48 1006.6
20260504025044 43 40 1.0 7.0 0.00 0.01 0.01 50 1006.6
20260504024557 44 28 2.0 5.0 0.00 0.01 0.01 49 1006.7
20260504024043 44 28 2.0 5.0 0.00 0.01 0.01 48 1006.7
20260504023543 44 28 3.0 5.0 0.00 0.01 0.01 47 1006.8
20260504023055 44 27 3.0 5.0 0.00 0.01 0.01 48 1006.9
20260504022543 44 27 3.0 6.0 0.00 0.01 0.01 49 1006.8
20260504022045 45 27 4.0 7.0 0.00 0.01 0.01 47 1007.0
20260504021547 44 22 3.0 7.0 0.00 0.01 0.01 48 1006.9
20260504021046 45 22 4.0 7.0 0.00 0.01 0.01 47 1007.0
20260504020542 45 12 2.0 4.0 0.00 0.01 0.01 46 1007.0
20260504020051 45 12 2.0 4.0 0.00 0.01 0.01 46 1006.9
20260504015548 46 12 2.0 5.0 0.00 0.01 0.01 44 1006.9
20260504015049 47 12 1.0 5.0 0.00 0.01 0.01 43 1006.9
20260504014555 47 12 3.0 5.0 0.00 0.01 0.01 41 1007.0
20260504014046 47 11 2.0 4.0 0.00 0.01 0.01 41 1007.0
20260504013547 47 11 2.0 4.0 0.00 0.01 0.01 41 1007.1
20260504013051 47 11 2.0 4.0 0.00 0.01 0.01 41 1007.0
20260504012549 47 11 2.0 4.0 0.00 0.01 0.01 41 1007.0
20260504012046 47 11 1.0 3.0 0.00 0.01 0.01 41 1007.1
20260504011551 47 11 1.0 3.0 0.00 0.01 0.01 41 1007.0
20260504011047 47 11 1.0 3.0 0.00 0.01 0.01 42 1006.9
20260504010546 47 11 1.0 3.0 0.00 0.01 0.01 42 1007.0
20260504010055 47 11 1.0 3.0 0.00 0.01 0.01 42 1006.9
20260504005549 47 11 1.0 3.0 0.00 0.01 0.01 42 1006.7
20260504005046 48 11 1.0 3.0 0.00 0.01 0.01 41 1006.8
20260504004552 48 11 1.0 2.0 0.00 0.01 0.01 41 1006.7
20260504004046 48 11 1.0 2.0 0.00 0.01 0.01 41 1006.7
20260504003550 48 11 1.0 2.0 0.00 0.01 0.01 41 1006.6
20260504003053 48 11 1.0 3.0 0.00 0.01 0.01 41 1006.6
20260504002546 48 11 1.0 3.0 0.00 0.01 0.01 41 1006.5
20260504002047 48 11 1.0 2.0 0.00 0.01 0.01 42 1006.6
20260504001609 49 11 1.0 2.0 0.00 0.01 0.01 42 1006.6
20260504001047 49 11 0.0 2.0 0.00 0.01 0.01 42 1006.6
20260504000547 49 0 0.0 2.0 0.00 0.01 0.01 42 1006.6
20260504000057 49 11 1.0 3.0 0.00 0.01 0.01 42 1006.6
20260503235546 50 0 1.0 3.0 0.00 0.01 0.01 43 1006.6
20260503235047 50 0 0.0 3.0 0.00 0.01 0.01 42 1006.4
20260503234552 50 0 0.0 3.0 0.00 0.01 0.01 42 1006.5
20260503234045 51 11 1.0 6.0 0.00 0.01 0.01 41 1006.5
20260503233547 51 11 1.0 6.0 0.00 0.01 0.01 41 1006.4
20260503233053 51 320 1.0 4.0 0.00 0.01 0.01 41 1006.5
20260503232551 51 320 1.0 5.0 0.00 0.01 0.01 39 1006.3
20260503232047 51 320 1.0 5.0 0.00 0.01 0.01 40 1006.4
20260503231556 51 320 2.0 5.0 0.00 0.01 0.01 38 1006.3
20260503231046 51 320 2.0 5.0 0.00 0.01 0.01 39 1006.2
20260503230547 51 320 2.0 5.0 0.00 0.01 0.01 39 1006.1
20260503230051 51 320 3.0 5.0 0.00 0.01 0.01 38 1006.2
20260503225546 51 319 2.0 3.0 0.00 0.03 0.01 41 1006.3
20260503225047 51 319 1.0 4.0 0.00 0.03 0.01 42 1006.3
20260503224551 50 0 1.0 4.0 0.00 0.03 0.01 40 1006.3
20260503224047 51 319 1.0 4.0 0.00 0.03 0.01 41 1006.2
20260503223549 51 319 1.0 3.0 0.00 0.03 0.01 41 1006.2
20260503223052 51 319 0.0 0.0 0.00 0.03 0.01 41 1006.3
20260503222549 51 0 0.0 0.0 0.00 0.03 0.01 38 1006.2
20260503222045 51 0 0.0 0.0 0.00 0.03 0.01 36 1006.2
20260503221551 51 0 0.0 1.0 0.00 0.03 0.01 37 1006.3
20260503221050 51 0 0.0 1.0 0.00 0.03 0.01 36 1006.2
20260503220547 51 0 0.0 1.0 0.00 0.03 0.01 36 1006.2
20260503220106 51 0 0.0 3.0 0.00 0.03 0.01 38 1006.2
20260503215547 51 319 1.0 3.0 0.00 0.04 0.01 38 1006.3
20260503215047 51 319 1.0 3.0 0.00 0.04 0.01 40 1006.3
20260503214555 51 319 1.0 3.0 0.00 0.04 0.01 41 1006.1
20260503214049 51 319 0.0 4.0 0.00 0.04 0.01 37 1006.1
20260503213546 51 319 1.0 4.0 0.00 0.04 0.01 39 1006.2
20260503213052 51 319 1.0 4.0 0.00 0.04 0.01 40 1006.2
20260503212547 51 319 0.0 3.0 0.00 0.04 0.01 40 1006.1
20260503212047 51 0 0.0 4.0 0.00 0.04 0.01 39 1006.2
20260503211604 51 319 1.0 4.0 0.00 0.04 0.01 41 1006.2
20260503211049 51 319 1.0 4.0 0.00 0.04 0.01 41 1006.0
20260503210547 52 319 1.0 3.0 0.00 0.04 0.01 38 1006.0
20260503210054 52 319 0.0 2.0 0.00 0.04 0.01 43 1006.1
20260503205547 51 319 0.0 3.0 0.00 0.05 0.01 37 1006.1
20260503205048 51 0 0.0 3.0 0.00 0.05 0.01 38 1006.0
20260503204555 52 319 1.0 4.0 0.00 0.05 0.01 36 1006.1
20260503204046 52 0 0.0 4.0 0.00 0.05 0.01 39 1006.2
20260503203543 51 319 2.0 4.0 0.00 0.05 0.01 38 1006.2
20260503203056 52 319 1.0 5.0 0.00 0.05 0.01 38 1006.1
20260503202546 52 0 2.0 5.0 0.00 0.05 0.01 37 1006.1
20260503202047 51 319 0.0 5.0 0.00 0.05 0.01 40 1006.1
20260503201558 51 319 2.0 5.0 0.00 0.05 0.01 38 1006.3
20260503201048 51 319 0.0 4.0 0.00 0.05 0.01 39 1006.3
20260503200549 51 0 1.0 4.0 0.00 0.05 0.01 37 1006.5
20260503200053 52 319 1.0 5.0 0.00 0.05 0.01 38 1006.3
20260503195546 52 319 1.0 5.0 0.00 0.05 0.01 40 1006.3
20260503195043 52 319 2.0 5.0 0.00 0.05 0.01 39 1006.5
20260503194556 52 0 0.0 4.0 0.00 0.05 0.01 38 1006.5
20260503194044 52 319 1.0 4.0 0.00 0.05 0.01 42 1006.7
20260503193543 52 319 1.0 4.0 0.00 0.05 0.01 40 1006.7
20260503193120 51 319 0.0 4.0 0.00 0.05 0.01 43 1006.9
20260503192543 50 0 1.0 5.0 0.00 0.05 0.01 45 1006.9
20260503192043 50 319 2.0 5.0 0.00 0.05 0.01 41 1007.0
20260503191555 50 319 1.0 8.0 0.00 0.05 0.01 42 1007.1
20260503191043 50 319 2.0 8.0 0.00 0.05 0.01 40 1007.0
20260503190544 51 318 3.0 8.0 0.00 0.05 0.01 40 1007.0
20260503190055 51 318 2.0 10.0 0.00 0.05 0.01 37 1006.9
20260503185543 51 318 3.0 10.0 0.00 0.05 0.01 39 1007.1
20260503185047 50 318 4.0 10.0 0.00 0.05 0.01 41 1007.2
20260503184551 50 321 2.0 9.0 0.00 0.05 0.01 42 1007.1
20260503184043 50 321 6.0 9.0 0.00 0.05 0.01 41 1007.3
20260503183542 51 328 2.0 6.0 0.00 0.05 0.01 41 1007.1
20260503183104 51 328 3.0 8.0 0.00 0.05 0.01 41 1007.3
20260503182545 51 329 3.0 8.0 0.00 0.05 0.01 42 1007.2
20260503182043 51 325 2.0 5.0 0.00 0.05 0.01 45 1007.3
20260503181622 51 325 1.0 8.0 0.00 0.05 0.01 46 1007.3
20260503181043 50 325 2.0 8.0 0.00 0.05 0.01 44 1007.4
20260503180543 50 326 2.0 8.0 0.00 0.05 0.01 43 1007.3
20260503180134 50 326 3.0 10.0 0.00 0.05 0.01 42 1007.3
20260503175542 49 326 3.0 10.0 0.00 0.05 0.01 44 1007.3
20260503175044 49 327 5.0 10.0 0.00 0.05 0.01 43 1007.4
20260503174554 50 339 1.0 8.0 0.00 0.05 0.01 42 1007.4
20260503174043 50 343 2.0 9.0 0.00 0.05 0.01 40 1007.4
20260503173542 50 343 3.0 9.0 0.00 0.05 0.01 46 1007.4
20260503173103 51 347 2.0 8.0 0.00 0.05 0.01 45 1007.3
20260503172546 50 349 1.0 8.0 0.00 0.05 0.01 46 1007.3
20260503172045 50 349 2.0 8.0 0.00 0.05 0.01 44 1007.4
20260503171556 50 349 3.0 8.0 0.00 0.05 0.01 44 1007.4
20260503171043 49 349 3.0 8.0 0.00 0.05 0.01 46 1007.5
20260503170544 50 348 2.0 9.0 0.00 0.05 0.01 47 1007.5
20260503150546 49 331 4.0 10.0 0.00 0.05 0.01 47 1008.2
20260503131042 47 333 3.0 10.0 0.00 0.05 0.01 61 1008.9
20260503130548 48 337 2.0 10.0 0.00 0.05 0.01 60 1008.9